Location: Ferma
(41.9500°N, 44.5167°E)
Time: 20:55:44
(UTC+00:00)

FENGYUN 1C DEB - Pass Details

Date: 13 August 2022
Orbit: 606 x 930 km, 99.7° (Epoch: 01 October)

Event Time Altitude Azimuth Distance (km) Brightness Sun altitude
Exits shadow 17:03:04 14° 119° (ESE) 2,018 ? -10.5°
Maximum altitude 17:06:41 31° 64° (ENE) 1,365 ? -11.1°
Drops below altitude 10° 17:11:22 10° 4° (N) 2,456 ? -11.8°
Sets 17:14:03 0° 354° (N) 3,444 ? -12.2°
